TRANSAT [?]

Last updated on Wed Jun 28 2023 01:03:29 GMT+0100 (British Summer Time)

1 10457U 77106A 23178.09875344 .00000099 00000+0 14202-3 0 9998 2 10457 89.6673 110.2026 0022943 267.9877 102.5512 13.48737540246387
UTC large
Height (km)
Speed (km/s)
/
Latitude / Longitude
Inclination (degrees)
Orbital Period (minutes)
Azimuth
Elevation
Range (km)
Doppler Factor

Next 0 passes for location: London (51.5072 / 0.1276)

Sorry there are no passes over London.